This is the latest recevied weather packets stored in our database for station/object SR9WXM. If no packets are shown the sender has not sent any weather packets the latest 1 day(s).
| Time | Temp. | Humidity | Pressure | Rain* | Wind** | Luminosity | Snow |
|---|---|---|---|---|---|---|---|
| 1777991697 | 18.33° C | 100% | 0 hPa | - | 7.6 m/s, 196° | - | - |
| 1777991457 | 18.33° C | 100% | 0 hPa | - | 8.05 m/s, 189° | - | - |
| 1777991217 | 18.33° C | 100% | 0 hPa | - | 8.49 m/s, 185° | - | - |
| 1777990975 | 18.33° C | 100% | 0 hPa | - | 8.49 m/s, 179° | - | - |
| 1777990735 | 18.89° C | 100% | 0 hPa | - | 8.05 m/s, 187° | - | - |
| 1777990495 | 18.33° C | 100% | 0 hPa | - | 6.26 m/s, 210° | - | - |
| 1777990247 | 18.33° C | 100% | 0 hPa | - | 7.6 m/s, 196° | - | - |
| 1777990005 | 18.33° C | 100% | 0 hPa | - | 7.6 m/s, 195° | - | - |
| 1777989763 | 18.89° C | 100% | 0 hPa | - | 7.15 m/s, 200° | - | - |
| 1777989523 | 18.89° C | 100% | 0 hPa | - | 6.71 m/s, 184° | - | - |
| 1777989283 | 19.44° C | 100% | 0 hPa | - | 7.15 m/s, 204° | - | - |
| 1777989043 | 19.44° C | 100% | 0 hPa | - | 6.26 m/s, 191° | - | - |
| 1777988803 | 19.44° C | 100% | 0 hPa | - | 7.15 m/s, 191° | - | - |
| 1777988561 | 20° C | 100% | 0 hPa | - | 7.15 m/s, 185° | - | - |
| 1777988321 | 20° C | 100% | 0 hPa | - | 8.49 m/s, 187° | - | - |
| 1777988081 | 20° C | 100% | 0 hPa | - | 8.05 m/s, 186° | - | - |
| 1777987841 | 20° C | 100% | 0 hPa | - | 8.05 m/s, 192° | - | - |
| 1777987600 | 20° C | 100% | 0 hPa | - | 8.05 m/s, 187° | - | - |
| 1777987358 | 20° C | 100% | 0 hPa | - | 7.6 m/s, 186° | - | - |
| 1777987118 | 20° C | 100% | 0 hPa | - | 8.05 m/s, 204° | - | - |
| 1777986878 | 19.44° C | 100% | 0 hPa | - | 7.15 m/s, 195° | - | - |
| 1777986638 | 19.44° C | 100% | 0 hPa | - | 7.15 m/s, 195° | - | - |
| 1777986398 | 19.44° C | 100% | 0 hPa | - | 7.6 m/s, 205° | - | - |
| 1777986156 | 18.89° C | 100% | 0 hPa | - | 7.15 m/s, 193° | - | - |
| 1777985916 | 18.33° C | 100% | 0 hPa | - | 7.15 m/s, 190° | - | - |
* Rain since midnight (hover to see other rain measurements)
** Current wind speed in m/s (hover to see current wind gust speed)